Tracking 30061 objects as of 8-Dec-2024
HD Live streaming from Space Station
objects crossing your sky now

COSMOS 505

Track COSMOS 505 now!
10-day predictions
COSMOS 505 is classified as:


NORAD ID: 6118
Int'l Code: 1972-057B
Perigee: 1,358.5 km
Apogee: 1,503.2 km
Inclination: 74.0 °
Period: 114.3 minutes
Semi major axis: 7801 km
RCS: 0.7076 m2 (medium)
Launch date: July 20, 1972
Source: Commonwealth of Independent States (former USSR) (CIS)
Launch site: PLESETSK MISSILE AND SPACE COMPLEX (PKMTR)
Your satellite tracking list
Your tracking list is empty




NASA's NSSDC Master Catalog

Two Line Element Set (TLE):
1 06118U 72057B   24342.88610808  .00000003  00000-0  11334-3 0  9999
2 06118  74.0276 246.2277 0092729 336.3906 100.0387 12.59807481409011
Source of the keplerian elements: AFSPC